EW2353 Weather Reports


Display with metric or nautical units.
time (UTC)temp
F
wind
direction
speed
MPH
gust
MPH
rain 1hr
in
rain 24hr
in
rain mn
in
humidity
%
barometer
mb
20260903160326 90 255 5.0 8.0 0.00 0.00 0.00 68 1017.9
20260903155818 90 213 2.0 9.0 0.00 0.00 0.00 71 1017.8
20260903155311 90 248 5.0 9.0 0.00 0.00 0.00 69 1017.8
20260903154844 90 270 5.0 9.0 0.00 0.00 0.00 69 1017.9
20260903154315 90 266 4.0 9.0 0.00 0.00 0.00 69 1017.9
20260903153812 89 268 4.0 9.0 0.00 0.00 0.00 72 1017.8
20260903153345 89 265 4.0 9.0 0.00 0.00 0.00 69 1017.9
20260903152817 89 229 4.0 8.0 0.00 0.00 0.00 71 1017.8
20260903152330 89 256 2.0 8.0 0.00 0.00 0.00 72 1017.8
20260903151822 89 248 2.0 5.0 0.00 0.00 0.00 72 1017.8
20260903151315 88 263 2.0 5.0 0.00 0.00 0.00 73 1017.8
20260903150848 88 262 4.0 5.0 0.00 0.00 0.00 73 1017.8
20260903150317 88 243 2.0 6.0 0.00 0.00 0.00 75 1017.8
20260903145829 87 255 3.0 7.0 0.00 0.00 0.00 76 1017.8
20260903145318 87 212 3.0 6.0 0.00 0.00 0.00 75 1017.7
20260903144815 87 257 2.0 6.0 0.00 0.00 0.00 76 1017.7
20260903144328 87 233 4.0 7.0 0.00 0.00 0.00 75 1017.7
20260903143842 86 218 4.0 7.0 0.00 0.00 0.00 75 1017.8
20260903143313 86 193 4.0 6.0 0.00 0.00 0.00 77 1017.8
20260903142826 86 282 4.0 6.0 0.00 0.00 0.00 76 1017.8
20260903142319 86 255 4.0 7.0 0.00 0.00 0.00 76 1017.7
20260903141812 85 249 4.0 8.0 0.00 0.00 0.00 77 1017.8
20260903141345 85 283 4.0 8.0 0.00 0.00 0.00 78 1017.8
20260903140816 85 259 3.0 5.0 0.00 0.00 0.00 77 1017.8
20260903140313 85 268 2.0 7.0 0.00 0.00 0.00 80 1017.9
20260903135826 84 282 4.0 7.0 0.00 0.00 0.00 77 1017.9
20260903135319 84 270 4.0 5.0 0.00 0.00 0.00 78 1017.9
20260903134812 84 248 4.0 6.0 0.00 0.00 0.00 80 1017.9
20260903134325 83 240 4.0 6.0 0.00 0.00 0.00 80 1017.9
20260903133817 83 270 2.0 5.0 0.00 0.00 0.00 81 1017.9
20260903133311 83 220 1.0 5.0 0.00 0.00 0.00 82 1017.9
20260903132823 82 245 0.0 1.0 0.00 0.00 0.00 86 1018.0
20260903132320 82 262 0.0 1.0 0.00 0.00 0.00 87 1018.1
20260903131813 82 241 0.0 1.0 0.00 0.00 0.00 88 1018.2
20260903131326 81 242 0.0 1.0 0.00 0.00 0.00 88 1018.2
20260903130839 80 200 0.0 1.0 0.00 0.00 0.00 90 1018.2
20260903130310 79 213 0.0 1.0 0.00 0.00 0.00 92 1018.2
20260903125824 79 219 0.0 1.0 0.00 0.00 0.00 92 1018.3
20260903125316 78 217 0.0 1.0 0.00 0.00 0.00 93 1018.2
20260903124829 77 216 0.0 1.0 0.00 0.00 0.00 93 1018.3
20260903124326 77 216 0.0 1.0 0.00 0.00 0.00 95 1018.3
20260903123819 76 209 0.0 1.0 0.00 0.00 0.00 97 1018.3
20260903123312 76 209 0.0 1.0 0.00 0.00 0.00 97 1018.3
20260903122825 75 209 0.0 1.0 0.00 0.00 0.00 97 1018.2
20260903122337 75 209 0.0 0.0 0.00 0.00 0.00 97 1018.3
20260903121849 74 209 0.0 0.0 0.00 0.00 0.00 97 1018.2
20260903121321 74 209 0.0 0.0 0.00 0.00 0.00 97 1018.2
20260903120813 74 208 0.0 0.0 0.00 0.00 0.00 97 1018.2
20260903120327 73 209 0.0 0.0 0.00 0.00 0.00 97 1018.2
20260903115840 73 209 0.0 0.0 0.00 0.00 0.00 97 1018.2
20260903115316 72 209 0.0 0.0 0.00 0.00 0.00 97 1018.2
20260903114828 72 209 0.0 0.0 0.00 0.00 0.00 97 1018.2
20260903114321 71 209 0.0 0.0 0.00 0.00 0.00 97 1018.2
20260903113814 70 208 0.0 0.0 0.00 0.00 0.00 97 1018.1
20260903113326 70 209 0.0 0.0 0.00 0.00 0.00 97 1018.0
20260903112819 69 208 0.0 0.0 0.00 0.00 0.00 97 1018.0
20260903112312 69 209 0.0 0.0 0.00 0.00 0.00 97 1017.9
20260903111825 70 209 0.0 0.0 0.00 0.00 0.00 97 1017.9
20260903111322 69 209 0.0 0.0 0.00 0.00 0.00 97 1017.7
20260903110835 69 209 0.0 0.0 0.00 0.00 0.00 97 1017.7
20260903110326 69 209 0.0 0.0 0.00 0.00 0.00 97 1017.7
20260903105839 69 208 0.0 0.0 0.00 0.00 0.00 97 1017.6
20260903105311 69 209 0.0 0.0 0.00 0.00 0.00 97 1017.5
20260903104824 69 209 0.0 0.0 0.00 0.00 0.00 97 1017.5
20260903104316 70 209 0.0 0.0 0.00 0.00 0.00 97 1017.4
20260903103829 70 209 0.0 0.0 0.00 0.00 0.00 97 1017.4
20260903103322 70 208 0.0 0.0 0.00 0.00 0.00 97 1017.4
20260903102819 70 208 0.0 0.0 0.00 0.00 0.00 97 1017.4
20260903102332 70 209 0.0 0.0 0.00 0.00 0.00 97 1017.4
20260903101824 70 208 0.0 0.0 0.00 0.00 0.00 97 1017.4
20260903101317 70 209 0.0 0.0 0.00 0.00 0.00 97 1017.4
20260903100830 70 209 0.0 0.0 0.00 0.00 0.00 97 1017.4
20260903100342 70 209 0.0 0.0 0.00 0.00 0.00 97 1017.4
20260903095814 70 209 0.0 0.0 0.00 0.00 0.00 97 1017.4
20260903095327 70 208 0.0 0.0 0.00 0.00 0.00 97 1017.4
20260903094819 70 208 0.0 0.0 0.00 0.00 0.00 97 1017.2
20260903094315 70 209 0.0 0.0 0.00 0.00 0.00 97 1017.3
20260903093828 70 208 0.0 0.0 0.00 0.00 0.00 97 1017.3
20260903093321 70 209 0.0 0.0 0.00 0.00 0.00 97 1017.3
20260903092814 70 209 0.0 0.0 0.00 0.00 0.00 97 1017.3
20260903092347 70 209 0.0 0.0 0.00 0.00 0.00 97 1017.3
20260903091819 70 209 0.0 0.0 0.00 0.00 0.00 97 1017.2
20260903091329 70 209 0.0 0.0 0.00 0.00 0.00 97 1017.3
20260903090323 71 209 0.0 0.0 0.00 0.00 0.00 97 1017.3
20260903085815 71 209 0.0 0.0 0.00 0.00 0.00 97 1017.3
20260903085313 71 208 0.0 0.0 0.00 0.00 0.00 97 1017.2
20260903084825 71 209 0.0 0.0 0.00 0.00 0.00 97 1017.2
20260903084338 70 209 0.0 0.0 0.00 0.00 0.00 97 1017.2
20260903083850 70 209 0.0 0.0 0.00 0.00 0.00 97 1017.2
20260903083342 71 208 0.0 0.0 0.00 0.00 0.00 97 1017.2
20260903082813 71 209 0.0 0.0 0.00 0.00 0.00 97 1017.2
20260903082326 71 209 0.0 0.0 0.00 0.00 0.00 97 1017.2
20260903081819 71 208 0.0 0.0 0.00 0.00 0.00 97 1017.3
20260903081312 71 209 0.0 0.0 0.00 0.00 0.00 97 1017.3
20260903080825 71 209 0.0 0.0 0.00 0.00 0.00 97 1017.2
20260903080322 71 209 0.0 0.0 0.00 0.00 0.00 97 1017.3
20260903075835 71 208 0.0 0.0 0.00 0.00 0.00 97 1017.2
20260903075326 71 208 0.0 0.0 0.00 0.00 0.00 97 1017.2
20260903074819 71 209 0.0 0.0 0.00 0.00 0.00 97 1017.2
20260903074313 71 208 0.0 0.0 0.00 0.00 0.00 97 1017.2
20260903073825 72 208 0.0 0.0 0.00 0.00 0.00 97 1017.1
20260903073318 71 209 0.0 0.0 0.00 0.00 0.00 97 1017.1
20260903072850 72 209 0.0 0.0 0.00 0.00 0.00 97 1017.0
20260903072322 72 208 0.0 0.0 0.00 0.00 0.00 97 1017.0
20260903071818 72 208 0.0 0.0 0.00 0.00 0.00 97 1017.0
20260903071311 72 209 0.0 0.0 0.00 0.00 0.00 97 1017.0
20260903070823 72 209 0.0 0.0 0.00 0.00 0.00 97 1017.0
20260903070316 72 209 0.0 0.0 0.00 0.00 0.00 97 1017.0
20260903065829 72 208 0.0 0.0 0.00 0.00 0.00 97 1017.0
20260903065322 72 208 0.0 0.0 0.00 0.00 0.00 97 1016.9
20260903064815 72 209 0.0 0.0 0.00 0.00 0.00 97 1017.0
20260903064311 72 209 0.0 0.0 0.00 0.00 0.00 97 1017.0
20260903063824 72 208 0.0 0.0 0.00 0.00 0.00 96 1017.0
20260903063317 72 209 0.0 0.0 0.00 0.00 0.00 96 1017.0
20260903062810 72 209 0.0 0.0 0.00 0.00 0.00 97 1017.0
20260903062323 73 208 0.0 0.0 0.00 0.00 0.00 97 1017.0
20260903061816 73 209 0.0 0.0 0.00 0.00 0.00 96 1017.0
20260903061329 73 209 0.0 0.0 0.00 0.00 0.00 96 1017.1
20260903060841 73 209 0.0 0.0 0.00 0.00 0.00 96 1017.1
20260903060313 73 209 0.0 0.0 0.00 0.00 0.00 96 1017.0
20260903055810 73 209 0.0 0.0 0.00 0.00 0.00 96 1017.1
20260903055323 73 209 0.0 0.0 0.00 0.00 0.00 96 1017.1
20260903054816 73 209 0.0 0.0 0.00 0.00 0.00 97 1017.0
20260903054329 73 209 0.0 0.0 0.00 0.00 0.00 97 1017.0
20260903053822 73 208 0.0 0.0 0.00 0.00 0.00 97 1017.0
20260903053314 73 209 0.0 0.0 0.00 0.00 0.00 97 1017.1
20260903052827 73 208 0.0 0.0 0.00 0.00 0.00 97 1017.0
20260903052320 73 209 0.0 0.0 0.00 0.00 0.00 97 1017.0
20260903051817 73 209 0.0 0.0 0.00 0.00 0.00 97 1016.9
20260903051310 73 209 0.0 0.0 0.00 0.00 0.00 97 1016.9
20260903050823 73 209 0.0 0.0 0.00 0.00 0.00 97 1016.9
20260903050315 73 209 0.0 0.0 0.00 0.00 0.00 97 1016.9
20260903045828 73 208 0.0 0.0 0.00 0.00 0.00 97 1016.8
20260903045321 73 208 0.0 0.0 0.00 0.00 0.00 97 1016.8
20260903044814 73 209 0.0 0.0 0.00 0.00 0.00 97 1016.8
20260903044311 73 208 0.0 0.0 0.00 0.00 0.00 97 1016.7
20260903043824 73 209 0.0 0.0 0.00 0.00 0.00 97 1016.8
20260903043317 73 209 0.0 0.0 0.00 0.00 0.00 96 1016.8
20260903042850 73 209 0.0 0.0 0.00 0.00 0.00 96 1016.7
20260903042321 73 209 0.0 0.0 0.00 0.00 0.00 96 1016.8
20260903041814 73 208 0.0 0.0 0.00 0.00 0.00 96 1016.8
20260903041347 73 208 0.0 0.0 0.00 0.00 0.00 96 1016.8
20260903040839 73 209 0.0 0.0 0.00 0.00 0.00 96 1016.8
20260903040311 73 208 0.0 0.0 0.00 0.00 0.00 96 1016.7
20260903035824 73 209 0.0 0.0 0.00 0.00 0.00 96 1016.8
20260903035321 73 209 0.0 0.0 0.00 0.00 0.00 96 1016.8
20260903034812 73 208 0.0 0.0 0.00 0.00 0.00 95 1016.9
20260903034325 74 209 0.0 0.0 0.00 0.00 0.00 95 1016.9
20260903033818 74 209 0.0 0.0 0.00 0.00 0.00 95 1016.9
20260903033311 74 208 0.0 0.0 0.00 0.00 0.00 95 1017.0
20260903032824 74 209 0.0 0.0 0.00 0.00 0.00 96 1016.9
20260903032317 74 209 0.0 0.0 0.00 0.00 0.00 95 1016.9
20260903031809 74 209 0.0 0.0 0.00 0.00 0.00 95 1017.0
20260903031326 74 209 0.0 0.0 0.00 0.00 0.00 95 1016.9
20260903030819 74 209 0.0 0.0 0.00 0.00 0.00 95 1017.0
20260903030312 74 208 0.0 0.0 0.00 0.00 0.00 95 1017.0
20260903025825 74 208 0.0 0.0 0.00 0.00 0.00 95 1017.1
20260903025317 74 209 0.0 0.0 0.00 0.00 0.00 95 1017.0
20260903024829 74 209 0.0 0.0 0.00 0.00 0.00 95 1017.0
20260903024342 75 209 0.0 0.0 0.00 0.00 0.00 95 1017.1
20260903023813 75 209 0.0 0.0 0.00 0.00 0.00 95 1017.1
20260903023310 75 209 0.0 0.0 0.00 0.00 0.00 94 1017.1
20260903022824 75 209 0.0 0.0 0.00 0.00 0.00 94 1017.2
20260903022316 75 208 0.0 0.0 0.00 0.00 0.00 95 1017.2
20260903021849 75 209 0.0 0.0 0.00 0.00 0.00 94 1017.2
20260903021341 75 209 0.0 0.0 0.00 0.00 0.00 94 1017.2
20260903020813 75 208 0.0 0.0 0.00 0.00 0.00 94 1017.2
20260903020325 76 209 0.0 0.0 0.00 0.00 0.00 94 1017.1
20260903015818 76 209 0.0 0.0 0.00 0.00 0.00 94 1017.1
20260903015311 76 208 0.0 0.0 0.00 0.00 0.00 93 1017.1
20260903014844 76 209 0.0 0.0 0.00 0.00 0.00 93 1017.1
20260903014320 76 209 0.0 0.0 0.00 0.00 0.00 93 1017.1
20260903013811 77 209 0.0 0.0 0.00 0.00 0.00 93 1017.0
20260903013323 77 208 0.0 0.0 0.00 0.00 0.00 93 1017.1
20260903012837 77 209 0.0 0.0 0.00 0.00 0.00 92 1017.0
20260903012348 77 208 0.0 0.0 0.00 0.00 0.00 92 1017.1
20260903011820 77 209 0.0 0.0 0.00 0.00 0.00 91 1017.0
20260903011312 78 208 0.0 0.0 0.00 0.00 0.00 91 1016.9
20260903010824 78 209 0.0 0.0 0.00 0.00 0.00 91 1016.8
20260903010317 78 208 0.0 0.0 0.00 0.00 0.00 91 1016.7
20260903005813 78 208 0.0 0.0 0.00 0.00 0.00 90 1016.7
20260903005326 79 209 0.0 0.0 0.00 0.00 0.00 89 1016.6
20260903004839 79 209 0.0 0.0 0.00 0.00 0.00 89 1016.7
20260903004311 79 208 0.0 0.0 0.00 0.00 0.00 88 1016.6
20260903003313 81 208 0.0 0.0 0.00 0.00 0.00 86 1016.6
20260903002846 81 208 0.0 0.0 0.00 0.00 0.00 84 1016.6
20260903002317 82 209 0.0 0.0 0.00 0.00 0.00 83 1016.5
20260903001811 83 209 0.0 0.0 0.00 0.00 0.00 81 1016.5
20260903000844 85 209 0.0 0.0 0.00 0.00 0.00 79 1016.5
20260903000317 86 209 0.0 0.0 0.00 0.00 0.00 77 1016.5
20260902235834 87 209 0.0 0.0 0.00 0.00 0.00 75 1016.6
20260902235325 88 208 0.0 0.0 0.00 0.00 0.00 74 1016.5
20260902234817 88 209 0.0 0.0 0.00 0.00 0.00 74 1016.6
20260902234310 89 209 0.0 0.0 0.00 0.00 0.00 73 1016.6
20260902233823 89 209 0.0 2.0 0.00 0.00 0.00 72 1016.6
20260902233336 89 214 0.0 1.0 0.00 0.00 0.00 72 1016.6
20260902232825 90 214 0.0 1.0 0.00 0.00 0.00 71 1016.5
20260902232317 90 214 0.0 3.0 0.00 0.00 0.00 71 1016.5
20260902231811 90 226 0.0 5.0 0.00 0.00 0.00 70 1016.5
20260902231327 90 218 2.0 5.0 0.00 0.00 0.00 67 1016.5
20260902230820 91 198 2.0 4.0 0.00 0.00 0.00 67 1016.6
20260902230313 91 236 0.0 3.0 0.00 0.00 0.00 68 1016.6
20260902225826 91 193 1.0 4.0 0.00 0.00 0.00 67 1016.6
20260902225319 91 203 1.0 4.0 0.00 0.00 0.00 66 1016.6
20260902224812 92 218 2.0 5.0 0.00 0.00 0.00 66 1016.6
20260902224325 92 243 2.0 5.0 0.00 0.00 0.00 66 1016.6
20260902223817 92 227 0.0 4.0 0.00 0.00 0.00 67 1016.7
20260902223315 92 231 1.0 8.0 0.00 0.00 0.00 66 1016.7
20260902222827 92 220 2.0 8.0 0.00 0.00 0.00 66 1016.7
20260902222320 92 219 1.0 6.0 0.00 0.00 0.00 66 1016.8
20260902221812 92 226 2.0 6.0 0.00 0.00 0.00 66 1016.8
20260902221324 92 214 2.0 5.0 0.00 0.00 0.00 64 1016.9
20260902220836 92 255 0.0 5.0 0.00 0.00 0.00 66 1016.8
20260902220348 92 210 2.0 8.0 0.00 0.00 0.00 64 1016.9
20260902215859 92 235 3.0 8.0 0.00 0.00 0.00 63 1016.9
20260902215327 92 243 4.0 8.0 0.00 0.00 0.00 64 1016.9
20260902214840 92 240 4.0 8.0 0.00 0.00 0.00 63 1016.9
20260902214312 92 211 2.0 8.0 0.00 0.00 0.00 64 1016.9
20260902213828 93 212 3.0 8.0 0.00 0.00 0.00 64 1017.0
20260902213320 92 211 3.0 6.0 0.00 0.00 0.00 64 1016.9
20260902212813 92 230 2.0 6.0 0.00 0.00 0.00 64 1016.9
20260902212326 92 238 2.0 5.0 0.00 0.00 0.00 65 1016.9
20260902211819 92 239 2.0 7.0 0.00 0.00 0.00 63 1017.0
20260902211312 92 218 4.0 7.0 0.00 0.00 0.00 64 1017.0
20260902210825 93 243 1.0 9.0 0.00 0.00 0.00 64 1017.0
20260902210318 93 256 5.0 9.0 0.00 0.00 0.00 62 1017.1
20260902205814 93 245 3.0 8.0 0.00 0.00 0.00 64 1017.2
20260902205327 93 210 2.0 8.0 0.00 0.00 0.00 64 1017.2
20260902204820 93 240 5.0 10.0 0.00 0.00 0.00 64 1017.2
20260902204313 93 242 5.0 9.0 0.00 0.00 0.00 63 1017.2
20260902203826 93 232 3.0 7.0 0.00 0.00 0.00 65 1017.2
20260902203319 92 233 3.0 9.0 0.00 0.00 0.00 62 1017.2
20260902202811 92 247 5.0 9.0 0.00 0.00 0.00 63 1017.2
20260902202324 92 214 4.0 9.0 0.00 0.00 0.00 62 1017.2
20260902201822 93 243 6.0 9.0 0.00 0.00 0.00 64 1017.3
20260902201314 92 205 3.0 7.0 0.00 0.00 0.00 63 1017.3
20260902200826 92 245 4.0 11.0 0.00 0.00 0.00 62 1017.3
20260902200316 93 259 5.0 11.0 0.00 0.00 0.00 62 1017.4
20260902195829 93 231 5.0 9.0 0.00 0.00 0.00 62 1017.3
20260902195342 93 239 4.0 9.0 0.00 0.00 0.00 63 1017.5
20260902194833 93 249 4.0 7.0 0.00 0.00 0.00 63 1017.6
20260902194325 93 235 2.0 9.0 0.00 0.00 0.00 64 1017.6
20260902193818 93 186 3.0 11.0 0.00 0.00 0.00 64 1017.7
20260902193315 93 212 5.0 11.0 0.00 0.00 0.00 64 1017.8
20260902192828 93 245 3.0 8.0 0.00 0.00 0.00 62 1017.9
20260902192321 93 231 2.0 8.0 0.00 0.00 0.00 63 1017.9
20260902191834 93 240 3.0 9.0 0.00 0.00 0.00 63 1018.0
20260902191326 93 219 1.0 9.0 0.00 0.00 0.00 63 1018.0
20260902190818 93 188 4.0 9.0 0.00 0.00 0.00 66 1018.1
20260902190311 93 230 4.0 9.0 0.00 0.00 0.00 65 1018.1
20260902185845 93 231 1.0 9.0 0.00 0.00 0.00 64 1018.1
20260902185319 92 240 6.0 10.0 0.00 0.00 0.00 61 1018.1
20260902184833 92 293 5.0 10.0 0.00 0.00 0.00 62 1018.2
20260902184325 93 259 3.0 9.0 0.00 0.00 0.00 61 1018.2
20260902183817 93 219 2.0 10.0 0.00 0.00 0.00 62 1018.2
20260902183351 93 186 3.0 10.0 0.00 0.00 0.00 62 1018.2
20260902182822 93 205 3.0 6.0 0.00 0.00 0.00 62 1018.2
20260902182315 92 248 2.0 8.0 0.00 0.00 0.00 64 1018.2
20260902181828 92 160 2.0 8.0 0.00 0.00 0.00 64 1018.2
20260902181321 92 259 3.0 10.0 0.00 0.00 0.00 66 1018.3
20260902180814 92 268 5.0 10.0 0.00 0.00 0.00 66 1018.3
20260902180311 92 250 3.0 10.0 0.00 0.00 0.00 64 1018.4
20260902175824 92 263 5.0 10.0 0.00 0.00 0.00 65 1018.4
20260902175337 92 258 3.0 10.0 0.00 0.00 0.00 63 1018.4
20260902174828 92 247 5.0 10.0 0.00 0.00 0.00 63 1018.4
20260902174321 92 296 6.0 11.0 0.00 0.00 0.00 65 1018.5
20260902173814 92 253 2.0 10.0 0.00 0.00 0.00 67 1018.6
20260902173347 91 213 4.0 11.0 0.00 0.00 0.00 68 1018.7
20260902172818 91 231 4.0 17.0 0.00 0.00 0.00 64 1018.8
20260902172312 91 191 3.0 9.0 0.00 0.00 0.00 66 1018.8
20260902171829 91 256 2.0 10.0 0.00 0.00 0.00 66 1018.8
20260902171341 91 269 6.0 10.0 0.00 0.00 0.00 64 1018.9
20260902170833 91 274 2.0 11.0 0.00 0.00 0.00 66 1019.0
20260902170345 91 257 3.0 11.0 0.00 0.00 0.00 64 1019.0
20260902165836 91 269 5.0 11.0 0.00 0.00 0.00 66 1019.0
20260902165328 91 268 6.0 10.0 0.00 0.00 0.00 65 1019.0
20260902164820 91 268 6.0 10.0 0.00 0.00 0.00 67 1019.0
20260902164333 90 238 2.0 9.0 0.00 0.00 0.00 69 1019.1
20260902163824 90 243 6.0 9.0 0.00 0.00 0.00 66 1019.0
20260902163317 90 281 4.0 9.0 0.00 0.00 0.00 67 1019.1
20260902162830 90 269 3.0 10.0 0.00 0.00 0.00 67 1019.1
20260902162324 90 277 5.0 10.0 0.00 0.00 0.00 69 1019.1
20260902161836 90 212 4.0 10.0 0.00 0.00 0.00 69 1019.1
20260902161329 90 274 4.0 7.0 0.00 0.00 0.00 68 1019.1
20260902160821 90 264 3.0 8.0 0.00 0.00 0.00 70 1019.1